Flag for Germany Weather past 2 weeks in Öhringen, Baden-Württemberg, Germany

Now
66 °F

Overcast.


Feels Like: 66 °F
Forecast: 47 / 70 °F
Wind: 1 mph from Northwest

Location: Oehringen

Current Time: Oct 1, 2014 at 6:30:28 PM

Latest Report: Oct 1, 2014 at 6:00 PM


Visibility: 14 mi

Pressure: 30.29 "Hg

Humidity: 75%

Dew point: 58 °F

Location of ÖhringenLocation

Historic Weather in Öhringen — Graph

°F

Öhringen temperature yesterday

Maximum temperature yesterday: 66 °F (at 4:00 PM)
Minimum temperature yesterday: 58 °F (at 11:00 PM)
Average temperature yesterday: 63 °F

Past Weeks' High & Low Weather Summary

 TemperatureHumidityPressure
High76 °F (Sep 18, 4:00 PM)99% (Oct 1, 9:00 AM)30.37 "Hg (Oct 1, 9:00 AM)
Low42 °F (Sep 24, 7:00 AM)49% (Sep 23, 3:00 PM)29.84 "Hg (Sep 18, 4:00 PM)
Average59 °F82%30.12 "Hg
* Reported Sep 16 5:00 PM — Oct 1 5:00 PM, Öhringen, Weather by CustomWeather, © 2014

Note: Actual official high and low records may vary slightly from our data, if they occured in-between our weather recording intervals... More about our weather records

Advertising

Öhringen weather history for previous 24 hours

 ConditionsComfort  
Time TempWeatherWind HumidityBarometerVisibility
5:00 PM
Oct 1
67 °FOvercast.2 mph71%30.29 "Hg18 mi
4:00 PM68 °FOvercast.2 mph71%30.29 "Hg10 mi
3:00 PM70 °FPartly sunny.3 mph60%30.29 "Hg14 mi
2:00 PM67 °FSunny.3 mph70%30.30 "Hg9 mi
1:00 PM65 °FPassing clouds.1 mph77%30.32 "Hg3 mi
12:00 PM61 °FLow clouds.1 mph89%30.34 "Hg2 mi
11:00 AM58 °FLow clouds.1 mph97%30.34 "Hg0 mi
10:00 AM56 °FLow clouds.1 mph98%30.33 "Hg0 mi
9:00 AM56 °FLow clouds.1 mph99%30.33 "Hg0 mi
8:00 AM55 °FLow clouds.1 mph98%30.32 "Hg1 mi
7:00 AM54 °FFog.1 mph97%30.32 "Hg2 mi
6:00 AM54 °FFog.1 mph97%30.31 "Hg2 mi
5:00 AM54 °FFog.1 mph97%30.32 "Hg2 mi
4:00 AM54 °FFog.1 mph97%30.32 "Hg2 mi
3:00 AM55 °FFog.No wind97%30.32 "Hg3 mi
2:00 AM56 °FFog.1 mph97%30.32 "Hg2 mi
1:00 AM57 °FFog.1 mph97%30.31 "Hg3 mi
12:00 AM57 °FFog.1 mph95%30.32 "Hg4 mi
11:00 PM
Sep 30
58 °FFog.2 mph96%30.31 "Hg4 mi
10:00 PM59 °FClear.1 mph94%30.31 "Hg6 mi
9:00 PM61 °FOvercast.1 mph92%30.30 "Hg6 mi
8:00 PM64 °FOvercast.1 mph85%30.29 "Hg11 mi
7:00 PM65 °FOvercast.2 mph80%30.28 "Hg11 mi
6:00 PM66 °FOvercast.2 mph78%30.28 "Hg12 mi
Weather by CustomWeather, © 2014

See weather overviewHow to use our weather pages